Adana, Turkey

6:20 PM +03 on November 19, 2017 (GMT +0300)
Adana

Weather History for LTAF - November, 2012

Change the Weather History Date:

Saturday, November 3, 2012

  Actual Average Record
Temperature  
Mean Temperature 72 °F -  
Max Temperature 84 °F 69 °F 87 °F (2004)
Min Temperature 59 °F 47 °F 44 °F (1999)
Cooling Degree Days 6    
Growing Degree Days 22 (Base 50)    
Moisture  
Dew Point 56 °F    
Average Humidity 64    
Maximum Humidity 88    
Minimum Humidity 30    
Precipitation  
Precipitation 0.00 in 0.11 in - ()
Sea Level Pressure  
Sea Level Pressure 29.96 in    
Wind  
Wind Speed 2 mph ()    
Max Wind Speed 10 mph    
Max Gust Speed -    
Averages and records for this station are not official NWS values.
T = Trace of Precipitation, MM = Missing Value Source: Averaged Metar Reports

Daily Weather History Graph

Daily Weather History Graph

Search for Another Location

Airport or City:

Trip Planner

Search our weather history database for the weather conditions in past years. The results will help you decide how hot, cold, wet, or windy it might be!

Date:

Astronomy

Nov. 03, 2012 Rise Set
Actual Time 6:05 AM EET 4:39 PM EET
Civil Twilight 5:38 AM EET 5:06 PM EET
Nautical Twilight 5:07 AM EET 5:36 PM EET
Astronomical Twilight 4:36 AM EET 6:07 PM EET
Moon 8:03 PM EET (11/3) 9:51 AM EET (11/3)
Length of Visible Light 11h 28m
Length of Day
10h 34m
Waning Gibbous, 82% of the Moon is Illuminated
Nov 3
Waning Gibbous
Nov 7
Last Quarter
Nov 14
New
Nov 20
First Quarter
Nov 28
Full

Hourly Weather History & Observations

Time (EET) Temp. Dew Point Humidity Pressure Visibility Wind Dir Wind Speed Gust Speed Precip Events Conditions
12:20 AM 62.6 °F 59.0 °F 88% 29.95 in - Calm Calm - N/A   Clear
12:50 AM 62.6 °F 59.0 °F 88% 29.92 in - Variable 1.2 mph - N/A   Clear
1:20 AM 62.6 °F 57.2 °F 82% 29.92 in - Calm Calm - N/A   Clear
1:50 AM 64.4 °F 57.2 °F 77% 29.92 in - North 2.3 mph - N/A   Clear
2:20 AM 64.4 °F 57.2 °F 77% 29.92 in - NNE 4.6 mph - N/A   Clear
2:50 AM 62.6 °F 55.4 °F 77% 29.92 in - NNE 4.6 mph - N/A   Clear
3:20 AM 62.6 °F 55.4 °F 77% 29.92 in - Calm Calm - N/A   Clear
3:50 AM 62.6 °F 55.4 °F 77% 29.92 in - North 1.2 mph - N/A   Clear
4:20 AM 59.0 °F 55.4 °F 88% 29.92 in - SSW 3.5 mph - N/A   Clear
4:50 AM 59.0 °F 55.4 °F 88% 29.95 in - NW 1.2 mph - N/A   Clear
5:20 AM 59.0 °F 55.4 °F 88% 29.95 in - Calm Calm - N/A   Clear
5:50 AM 59.0 °F 55.4 °F 88% 29.95 in - Calm Calm - N/A   Clear
6:20 AM 59.0 °F 55.4 °F 88% 29.95 in - West 3.5 mph - N/A   Clear
6:50 AM 59.0 °F 55.4 °F 88% 29.95 in - Variable 2.3 mph - N/A   Clear
7:20 AM 66.2 °F 59.0 °F 78% 29.98 in - Variable 1.2 mph - N/A   Clear
7:50 AM 68.0 °F 57.2 °F 68% 29.98 in - NE 3.5 mph - N/A   Clear
8:20 AM 71.6 °F 55.4 °F 57% 29.98 in - NNW 3.5 mph - N/A   Clear
8:50 AM 73.4 °F 53.6 °F 50% 29.98 in - NNW 10.4 mph - N/A   Clear
9:20 AM 75.2 °F 53.6 °F 47% 29.98 in - North 3.5 mph - N/A   Clear
9:50 AM 77.0 °F 51.8 °F 41% 29.98 in - NW 4.6 mph - N/A   Clear
10:20 AM 78.8 °F 51.8 °F 39% 29.98 in - North 3.5 mph - N/A   Clear
10:50 AM 80.6 °F 51.8 °F 37% 29.98 in - NE 2.3 mph - N/A   Clear
11:20 AM 82.4 °F 50.0 °F 32% 29.95 in - Variable 2.3 mph - N/A   Clear
11:50 AM 80.6 °F 50.0 °F 34% 29.95 in - ENE 4.6 mph - N/A   Clear
12:20 PM 82.4 °F 50.0 °F 32% 29.95 in - Variable 2.3 mph - N/A   Clear
12:50 PM 82.4 °F 50.0 °F 32% 29.92 in - SE 3.5 mph - N/A   Clear
1:20 PM 84.2 °F 50.0 °F 30% 29.92 in - Variable 2.3 mph - N/A   Clear
1:50 PM 84.2 °F 50.0 °F 30% 29.92 in - South 4.6 mph - N/A   Clear
2:20 PM 84.2 °F 50.0 °F 30% 29.92 in - SSE 4.6 mph - N/A   Clear
2:50 PM 82.4 °F 50.0 °F 32% 29.92 in - SSE 4.6 mph - N/A   Clear
3:20 PM 82.4 °F 51.8 °F 35% 29.92 in - South 4.6 mph - N/A   Clear
3:50 PM 78.8 °F 55.4 °F 44% 29.95 in - SW 9.2 mph - N/A   Clear
4:20 PM 77.0 °F 57.2 °F 50% 29.95 in - SW 6.9 mph - N/A   Clear
4:50 PM 73.4 °F 57.2 °F 57% 29.95 in - WSW 5.8 mph - N/A   Clear
5:20 PM 73.4 °F 57.2 °F 57% 29.95 in - West 4.6 mph - N/A   Clear
5:50 PM 73.4 °F 59.0 °F 61% 29.98 in - West 4.6 mph - N/A   Clear
6:20 PM 71.6 °F 59.0 °F 64% 29.98 in - WSW 3.5 mph - N/A   Clear
6:50 PM 68.0 °F 59.0 °F 73% 29.98 in - SSW 2.3 mph - N/A   Clear
7:20 PM 69.8 °F 59.0 °F 68% 29.98 in - Variable 1.2 mph - N/A   Clear
7:50 PM 66.2 °F 59.0 °F 78% 29.98 in - East 3.5 mph - N/A   Clear
8:20 PM 66.2 °F 59.0 °F 78% 29.98 in - Variable 2.3 mph - N/A   Clear
8:50 PM 64.4 °F 59.0 °F 83% 30.01 in - Variable 2.3 mph - N/A   Clear
9:20 PM 66.2 °F 60.8 °F 83% 30.01 in - NNE 3.5 mph - N/A   Clear
9:50 PM 66.2 °F 59.0 °F 78% 30.01 in - NNE 4.6 mph - N/A   Clear
10:20 PM 66.2 °F 57.2 °F 73% 30.01 in - Variable 2.3 mph - N/A   Clear
10:50 PM 66.2 °F 59.0 °F 78% 30.01 in - NW 2.3 mph - N/A   Clear
11:20 PM 64.4 °F 57.2 °F 77% 30.01 in - NNW 2.3 mph - N/A   Clear
11:50 PM 62.6 °F 57.2 °F 82% 30.01 in - NNE 2.3 mph - N/A   Clear